Weather History for TNCM - November, 2011

Change the Weather History Date:

Thursday, November 10, 2011

  Actual Average Record
Temperature  
Mean Temperature 82 °F -  
Max Temperature 86 °F 83 °F 88 °F (2012)
Min Temperature 77 °F 74 °F 73 °F (1998)
Cooling Degree Days 16    
Growing Degree Days 32 (Base 50)    
Moisture  
Dew Point 74 °F    
Average Humidity 76    
Maximum Humidity 84    
Minimum Humidity 53    
Precipitation  
Precipitation 0.00 in 0.15 in - ()
Sea Level Pressure  
Sea Level Pressure 29.88 in    
Wind  
Wind Speed 10 mph ()    
Max Wind Speed 21 mph    
Max Gust Speed -    
Visibility 7.7 miles    
Events      
Averages and records for this station are not official NWS values.
T = Trace of Precipitation, MM = Missing Value Source: Averaged Metar Reports

Daily Weather History Graph

Daily Weather History Graph

Search for Another Location

Airport or City:

Trip Planner

Search our weather history database for the weather conditions in past years. The results will help you decide how hot, cold, wet, or windy it might be!

Date:

Astronomy

Nov. 10, 2011 Rise Set
Actual Time 6:15 AM AST 5:36 PM AST
Civil Twilight 5:52 AM AST 5:59 PM AST
Nautical Twilight 5:26 AM AST 6:25 PM AST
Astronomical Twilight 5:00 AM AST 6:51 PM AST
Moon 5:29 PM AST (11/10) 5:58 AM AST (11/10)
Length of Visible Light 12h 06m
Length of Day
11h 21m
Full, 100% of the Moon is Illuminated
Nov 10
Full
Nov 10
Full
Nov 18
Last Quarter
Nov 25
New
Dec 2
First Quarter

Hourly Weather History & Observations

Time (AST) Temp. Heat Index Dew Point Humidity Pressure Visibility Wind Dir Wind Speed Gust Speed Precip Events Conditions
12:00 AM 78.8 °F - 73.4 °F 83% 29.89 in 6.2 mi East 6.9 mph - N/A   Partly Cloudy
1:00 AM 80.6 °F 85.4 °F 73.4 °F 79% 29.89 in 6.2 mi ESE 9.2 mph - N/A   Mostly Cloudy
2:00 AM 80 °F - 74 °F 77% 29.86 in 16 mi ESE 16.1 mph - -   Partly Cloudy
2:00 AM 80.6 °F 85.4 °F 73.4 °F 79% 29.83 in 6.2 mi ESE 16.1 mph - N/A   Mostly Cloudy
3:00 AM 80.6 °F 86.2 °F 75.2 °F 84% 29.86 in 6.2 mi ESE 13.8 mph - N/A   Mostly Cloudy
4:00 AM 80.6 °F 85.4 °F 73.4 °F 79% 29.86 in - ESE 11.5 mph - N/A   Mostly Cloudy
5:00 AM 80 °F - 74 °F 77% 29.85 in 16 mi SE 13.8 mph - -   Mostly Cloudy
5:00 AM 80.6 °F 85.4 °F 73.4 °F 79% 29.83 in 6.2 mi SE 13.8 mph - N/A   Mostly Cloudy
6:00 AM 80.6 °F 85.4 °F 73.4 °F 79% 29.86 in 6.2 mi ESE 12.7 mph - N/A   Mostly Cloudy
7:00 AM 80.6 °F 86.2 °F 75.2 °F 84% 29.89 in 6.2 mi SE 19.6 mph - N/A   Mostly Cloudy
8:00 AM 80 °F - 74 °F 78% 29.91 in 16 mi SE 20.7 mph - -   Partly Cloudy
8:00 AM 80.6 °F 86.2 °F 75.2 °F 84% 29.89 in 6.2 mi SE 20.7 mph - N/A   Partly Cloudy
9:00 AM 80.6 °F 85.4 °F 73.4 °F 79% 29.89 in 6.2 mi SE 15.0 mph - N/A   Partly Cloudy
10:00 AM 82.4 °F 88.2 °F 73.4 °F 74% 29.92 in 6.2 mi SSE 12.7 mph - N/A   Partly Cloudy
11:00 AM 83 °F - 75 °F 71% 29.93 in 16 mi SSE 10.4 mph - -   Partly Cloudy
11:00 AM 82.4 °F 89.5 °F 75.2 °F 79% 29.92 in 6.2 mi SE 10.4 mph - N/A   Scattered Clouds
12:00 PM 84.2 °F 92.3 °F 75.2 °F 74% 29.89 in 6.2 mi SE 12.7 mph - N/A   Scattered Clouds
1:00 PM 84.2 °F 90.9 °F 73.4 °F 70% 29.86 in 6.2 mi SE 13.8 mph - N/A   Partly Cloudy
2:00 PM 85 °F - 70 °F 53% 29.86 in 28 mi SSE 9.2 mph - -   Scattered Clouds
2:00 PM 86.0 °F 91.8 °F 71.6 °F 62% 29.86 in 6.2 mi SE 9.2 mph - N/A   Partly Cloudy
3:00 PM 84.2 °F 90.9 °F 73.4 °F 70% 29.86 in 6.2 mi SE 9.2 mph - N/A   Partly Cloudy
4:00 PM 84.2 °F 90.9 °F 73.4 °F 70% 29.86 in 6.2 mi SE 9.2 mph - N/A   Partly Cloudy
5:00 PM 83 °F - 74 °F 68% 29.86 in 25 mi SE 5.8 mph - -   Scattered Clouds
5:00 PM 82.4 °F 89.5 °F 75.2 °F 79% 29.86 in 6.2 mi SE 5.8 mph - N/A   Partly Cloudy
6:00 PM 82.4 °F 89.5 °F 75.2 °F 79% 29.86 in 6.2 mi SE 4.6 mph - N/A   Partly Cloudy
7:00 PM 82.4 °F 89.5 °F 75.2 °F 79% 29.86 in 6.2 mi Variable 3.5 mph - N/A   Partly Cloudy
8:00 PM 82.4 °F 90.9 °F 77.0 °F 84% 29.89 in 6.2 mi SE 4.6 mph - N/A   Partly Cloudy
9:00 PM 82.4 °F 89.5 °F 75.2 °F 79% 29.89 in 6.2 mi Variable 3.5 mph - N/A   Partly Cloudy
10:00 PM 82.4 °F 89.5 °F 75.2 °F 79% 29.89 in 6.2 mi SE 10.4 mph - N/A   Partly Cloudy
11:00 PM 82 °F - 75 °F 75% 29.90 in 25 mi SE 5.8 mph - -   Scattered Clouds
11:00 PM 82.4 °F 89.5 °F 75.2 °F 79% 29.89 in 6.2 mi SE 5.8 mph - N/A   Partly Cloudy